Location: Cronhütte
(48.9135°N, 9.6869°E)
Time: 08:32:55
(UTC+00:00)

SL-8 R/B - Pass Details

Date: 23 May 2024
Orbit: 652 x 662 km, 48.4° (Epoch: 15 June)

Event Time Altitude Azimuth Distance (km) Brightness Sun altitude
Rises 00:58:32 0° 284° (WNW) 2,977 7.0 -16.9°
Reaches altitude 10° 01:00:58 10° 277° (W) 2,065 6.1 -16.8°
Maximum altitude 01:05:26 41° 208° (SSW) 946 4.0 -16.4°
Drops below altitude 10° 01:09:55 10° 138° (SE) 2,064 6.0 -16.1°
Sets 01:12:20 0° 131° (SE) 2,975 6.9 -15.9°
